St. Marys, AK

12:33 PM AKDT on October 15, 2019 (GMT -0800)
Saint Mary's

Weather History for PASM - August, 2019

Change the Weather History Date:

Monday, August 26, 2019

  Actual Average Record
Temperature  
Mean Temperature 51 °F -  
Max Temperature 50 °F 53 °F 66 °F (2001)
Min Temperature 48 °F 41 °F 35 °F (2008)
Degree Days  
Heating Degree Days 14    
Growing Degree Days 1 (Base 50)    
Moisture  
Dew Point 49 °F    
Average Humidity 93    
Maximum Humidity 100    
Minimum Humidity 80    
Precipitation  
Precipitation 0.01 in - - ()
Sea Level Pressure  
Sea Level Pressure 30.11 in    
Wind  
Wind Speed 5 mph ()    
Max Wind Speed 13 mph    
Max Gust Speed -    
Visibility 8.6 miles    
Events Rain    
Averages and records for this station are not official NWS values.
T = Trace of Precipitation, MM = Missing Value Source: Averaged Metar Reports

Daily Weather History Graph

Daily Weather History Graph

Search for Another Location

Airport or City:

Astronomy

Aug. 26, 2019 Rise Set
Actual Time 7:26 AM AKDT 10:21 PM AKDT
Civil Twilight 6:35 AM AKDT 11:12 PM AKDT
Nautical Twilight 5:23 AM AKDT 12:22 AM AKDT
Astronomical Twilight 3:27 AM AKDT 2:22 AM AKDT
Moon 1:44 AM AKDT (8/26) 9:16 PM AKDT (8/26)
Length of Visible Light 16h 36m
Length of Day
14h 54m
Waning Crescent, 18% of the Moon is Illuminated
Aug 26
Waning Crescent
Aug 30
New
Sep 5
First Quarter
Sep 13
Full
Sep 21
Last Quarter

Hourly Weather History & Observations

Time (AKDT) Temp. Dew Point Humidity Pressure Visibility Wind Dir Wind Speed Gust Speed Precip Events Conditions
12:02 AM 50.0 °F 48.9 °F 96% 30.08 in 10.0 mi WSW 3.5 mph - N/A   Overcast
12:30 AM 50.0 °F 48.2 °F 94% 30.06 in 10.0 mi Calm Calm - N/A   Overcast
1:02 AM 50.0 °F 48.0 °F 93% 30.09 in 10.0 mi West 3.5 mph - N/A   Overcast
1:38 AM 50.0 °F 48.2 °F 94% 30.07 in 10.0 mi SW 3.5 mph - N/A   Overcast
1:50 AM 50.0 °F 48.2 °F 94% 30.07 in 10.0 mi WSW 3.5 mph - N/A   Overcast
2:02 AM 50.0 °F 48.2 °F 94% 30.07 in 10.0 mi Calm Calm - N/A   Overcast
2:10 AM 50.0 °F 48.2 °F 94% 30.07 in 10.0 mi SSW 3.5 mph - N/A   Overcast
2:32 AM 48.9 °F 48.9 °F 100% 30.09 in 10.0 mi South 3.5 mph - N/A   Overcast
2:47 AM 48.2 °F 48.2 °F 100% 30.07 in 10.0 mi SSW 5.8 mph - N/A   Overcast
3:02 AM 48.9 °F 48.9 °F 100% 30.10 in 10.0 mi SSW 4.6 mph - N/A   Overcast
3:13 AM 48.2 °F 48.2 °F 100% 30.08 in 10.0 mi SSW 4.6 mph - N/A   Overcast
4:02 AM 48.9 °F 48.9 °F 100% 30.10 in 10.0 mi SW 4.6 mph - N/A   Overcast
5:02 AM 48.9 °F 48.0 °F 97% 30.10 in 10.0 mi SSW 4.6 mph - N/A   Overcast
6:09 AM 48.2 °F 48.2 °F 100% 30.09 in 10.0 mi SSW 6.9 mph - N/A   Overcast
7:02 AM 48.9 °F 48.0 °F 97% 30.11 in 10.0 mi SSW 5.8 mph - N/A   Overcast
8:02 AM 48.9 °F 48.0 °F 97% 30.12 in 10.0 mi SW 6.9 mph - N/A   Overcast
8:11 AM 50.0 °F 48.2 °F 94% 30.10 in 10.0 mi SSW 6.9 mph - N/A   Overcast
8:23 AM 50.0 °F 48.2 °F 94% 30.10 in 10.0 mi SSW 4.6 mph - N/A   Overcast
8:41 AM 50.0 °F 48.2 °F 94% 30.10 in 7.0 mi SW 6.9 mph - N/A   Overcast
8:51 AM 50.0 °F 48.2 °F 94% 30.10 in 1.8 mi SW 6.9 mph - N/A   Overcast
8:58 AM 50.0 °F 48.2 °F 94% 30.10 in 3.0 mi SW 6.9 mph - N/A   Overcast
8:59 AM 50.0 °F 48.9 °F 96% 30.12 in 4.0 mi SW 6.9 mph - N/A   Overcast
9:54 AM 51.8 °F 48.2 °F 88% 30.11 in 10.0 mi SW 8.1 mph - N/A   Overcast
10:49 AM 51.8 °F 48.2 °F 88% 30.11 in 10.0 mi SW 9.2 mph - N/A   Overcast
11:02 AM 51.1 °F 48.0 °F 89% 30.14 in 10.0 mi SW 9.2 mph - N/A   Overcast
12:02 PM 52.0 °F 48.0 °F 86% 30.14 in 10.0 mi SW 9.2 mph - N/A   Overcast
12:16 PM 51.8 °F 46.4 °F 82% 30.12 in 10.0 mi SSW 9.2 mph - N/A   Overcast
1:02 PM 52.0 °F 46.9 °F 83% 30.14 in 10.0 mi SW 8.1 mph - N/A   Overcast
2:02 PM 53.1 °F 48.0 °F 83% 30.15 in 8.0 mi SW 9.2 mph - N/A   Overcast
3:02 PM 53.1 °F 48.9 °F 86% 30.15 in 10.0 mi SSW 10.4 mph - N/A   Overcast
3:30 PM 53.6 °F 50.0 °F 88% 30.12 in 7.0 mi SW 9.2 mph - N/A   Overcast
4:02 PM 54.0 °F 48.9 °F 83% 30.14 in 10.0 mi SSW 9.2 mph - N/A   Overcast
4:12 PM 53.6 °F 48.2 °F 82% 30.12 in 10.0 mi SW 9.2 mph - N/A   Overcast
4:36 PM 53.6 °F 48.2 °F 82% 30.12 in 10.0 mi SW 11.5 mph - N/A   Overcast
5:02 PM 53.6 °F 48.2 °F 82% 30.12 in 10.0 mi SW 10.4 mph - N/A   Overcast
5:55 PM 53.6 °F 50.0 °F 88% 30.12 in 4.0 mi WSW 10.4 mph - N/A   Overcast
6:02 PM 52.0 °F 51.1 °F 97% 30.15 in 4.0 mi WSW 11.5 mph - 0.00 in Rain Light Rain
6:11 PM 51.8 °F 51.8 °F 100% 30.12 in 5.0 mi WSW 9.2 mph - 0.00 in Rain Light Rain
6:41 PM 53.6 °F 50.0 °F 88% 30.12 in 10.0 mi WSW 10.4 mph - 0.00 in   Overcast
7:02 PM 54.0 °F 48.0 °F 80% 30.14 in 10.0 mi WSW 6.9 mph - 0.00 in   Overcast
8:02 PM 53.1 °F 50.0 °F 89% 30.14 in 4.0 mi SW 10.4 mph - N/A   Overcast
8:08 PM 53.6 °F 51.8 °F 94% 30.12 in 2.5 mi SW 12.7 mph - 0.00 in Rain Light Rain
8:23 PM 51.8 °F 51.8 °F 100% 30.12 in 8.0 mi SW 8.1 mph - 0.00 in Rain Light Rain
8:37 PM 51.8 °F 51.8 °F 100% 30.12 in 3.0 mi WSW 9.2 mph - 0.00 in Rain Light Rain
8:44 PM 51.8 °F 51.8 °F 100% 30.12 in 4.0 mi SW 8.1 mph - 0.00 in Rain Light Rain
9:02 PM 52.0 °F 51.1 °F 97% 30.14 in 10.0 mi WSW 8.1 mph - 0.00 in   Overcast
9:16 PM 51.8 °F 50.0 °F 94% 30.12 in 10.0 mi West 5.8 mph - 0.01 in   Overcast
9:28 PM 51.8 °F 50.0 °F 94% 30.12 in 10.0 mi WSW 5.8 mph - 0.01 in   Overcast
10:02 PM 51.8 °F 50.0 °F 94% 30.12 in 6.0 mi WSW 6.9 mph - 0.01 in Rain Light Rain
10:20 PM 51.8 °F 50.0 °F 94% 30.12 in 10.0 mi WSW 6.9 mph - 0.01 in   Overcast
10:28 PM 51.1 °F 50.0 °F 96% 30.15 in 10.0 mi West 5.8 mph - 0.01 in   Overcast
10:47 PM 51.8 °F 50.0 °F 94% 30.12 in 10.0 mi WSW 5.8 mph - N/A   Overcast
11:02 PM 50.0 °F 48.9 °F 96% 30.15 in 10.0 mi West 5.8 mph - N/A   Overcast
11:27 PM 51.8 °F 48.2 °F 88% 30.13 in 10.0 mi WSW 4.6 mph - N/A   Overcast
11:42 PM 51.8 °F 48.2 °F 88% 30.13 in 10.0 mi WSW 9.2 mph - N/A   Overcast